Location: *
(40.9167°N, 9.5000°E)
Time: 03:38:20
(UTC+00:00)

H-2A R/B - Pass Details

Date: 09 April 2020
Orbit: 734 x 836 km, 98.2° (Epoch: 30 May)

Event Time Altitude Azimuth Distance (km) Brightness Sun altitude
Rises 18:15:11 0° 145° (SE) 3,292 4.8 -4.4°
Reaches altitude 10° 18:17:39 10° 139° (SE) 2,350 4.0 -4.9°
Maximum altitude 18:22:28 40° 70° (ENE) 1,125 2.5 -5.7°
Drops below altitude 10° 18:27:11 10° 2° (N) 2,303 4.7 -6.6°
Sets 18:29:34 0° 355° (N) 3,219 5.5 -7.0°
